Location: Melque
(41.0517°N, 4.4694°W)
Time: 23:34:54
(UTC+00:00)

SKYMED 2 - Visible Passes

Search period start: 14 March 2026 00:00
Search period end: 24 March 2026 00:00
Orbit: 622 x 623 km, 97.9° (Epoch: 14 March)

Date Brightness Start Highest point End Pass type
(mag) Time Alt. Az. Time Alt. Az. Time Alt. Az.
14 Mar 6.7 04:20:01 10° E 04:22:34 15° ENE 04:25:07 10° NNE visible
14 Mar 3.8 05:54:05 10° S 05:58:17 50° W 06:02:31 10° NNW visible
14 Mar 6.1 19:18:06 10° NNW 19:21:41 25° WNW 19:25:14 10° WSW visible
15 Mar 6.1 04:37:00 10° ESE 04:40:24 23° ENE 04:43:50 10° NNE visible
15 Mar 6.6 19:36:43 10° NNW 19:39:32 17° WNW 19:42:21 10° WSW visible
16 Mar 5.3 04:54:22 10° SE 04:58:19 35° ENE 05:02:15 10° N visible
16 Mar 7.0 19:56:01 10° NW 19:57:21 11° WNW 19:58:41 10° W visible
17 Mar 4.4 05:12:02 10° SSE 05:16:15 54° ENE 05:20:30 10° N visible
18 Mar 3.6 05:29:54 10° SSE 05:34:14 87° E 05:38:36 10° NNW visible
18 Mar 4.9 18:53:39 10° N 18:57:47 45° WNW 19:01:55 10° SW visible
19 Mar 6.9 04:14:30 10° E 04:16:37 13° ENE 04:18:44 10° NNE visible
19 Mar 3.6 05:48:00 10° S 05:52:16 58° W 05:56:34 10° NNW visible
19 Mar 5.9 19:11:57 10° N 19:15:42 29° WNW 19:19:27 10° SW visible
20 Mar 6.3 04:31:17 10° ESE 04:34:27 20° ENE 04:37:38 10° NNE visible
20 Mar 6.6 19:30:28 10° NNW 19:33:35 20° WNW 19:36:42 10° WSW visible
21 Mar 5.6 04:48:33 10° SE 04:52:19 30° ENE 04:56:08 10° N visible
21 Mar 6.9 19:49:25 10° NW 19:51:25 13° WNW 19:53:24 10° W visible
22 Mar 4.7 05:06:06 10° SE 05:10:15 47° ENE 05:14:25 10° N visible
23 Mar 3.8 05:23:54 10° SSE 05:28:13 75° ENE 05:32:33 10° N visible
